#timestamp,LO_Frequency,Hit,StdDev 
1511316015.7,286046994.6,N
1511316035.5,286047001.1,N
1511316055.3,286046998.0,N
1511316075.2,286046997.9,N
1511316095.9,286046999.2,N
1511316115.7,286047002.7,N
1511316135.6,286047005.3,N
1511316155.4,286047007.3,N
1511316175.2,286047004.6,N
1511316195.1,286047006.2,N
1511316196.0,286047006.2,N
1511316215.8,286047007.7,N
1511316235.6,286047011.9,N
1511316255.5,286047008.2,N
1511316275.3,286047007.1,N
1511316295.1,286047006.0,N
1511316315.8,286047001.5,N
1511316335.7,286047003.8,N
1511316355.5,286047003.3,N
1511316375.3,286047000.7,N
1511316395.2,286046998.7,N
1511316415.9,286047000.7,N
1511316435.7,286047002.2,N
1511316455.6,286047008.9,N
1511316475.4,286047007.4,N
1511316495.2,286047004.8,N
1511316515.1,286047004.6,N
1511316516.0,286047004.6,N
1511316535.8,286047003.0,N
1511316555.6,286047000.8,N
1511316575.5,286047001.7,N
1511316595.3,286047002.7,N
1511316615.1,286047001.7,N
1511316635.8,286047000.6,N
1511316655.7,286046995.2,N
1511316675.5,286046998.0,N
1511316695.3,286046997.0,N
1511316715.2,286047000.2,N
1511316735.0,286047005.7,N
1511316735.9,286047005.7,N
1511316755.7,286047001.9,N
1511316775.6,286047002.6,N
1511316795.4,286046997.2,N
1511316815.2,286046996.3,N
1511316835.1,286046995.2,N
1511316836.0,286046995.2,N
1511316855.8,286046997.7,N
1511316875.6,286046997.0,N
1511316895.5,286046997.1,N
1511316915.3,286046997.6,N
1511316935.1,286046996.9,N
1511316955.9,286046996.6,N
1511316975.7,286046997.4,N
1511316995.5,286046997.1,N
1511317015.3,286046995.5,N
1511317035.2,286046991.9,N
1511317055.0,286046991.6,N
1511317055.9,286046991.6,N
1511317075.7,286046989.0,N
1511317095.6,286046986.8,Y
1511317115.4,286046990.0,P
1511317135.2,286046990.9,N
1511317155.1,286046988.9,P
1511317156.0,286046988.9,Y
1511317175.8,286046999.0,P
1511317195.7,286046996.1,N
1511317215.5,286047001.2,N
1511317235.3,286047001.4,N
1511317255.1,286047008.7,N
1511317275.9,286047008.5,N
1511317295.7,286047005.2,N
1511317315.5,286047004.3,N
1511317335.4,286046998.6,N
1511317355.2,286047000.5,N
1511317375.0,286047005.3,N
1511317375.9,286047005.3,N
1511317395.8,286047007.6,N
1511317415.6,286047005.6,N
1511317435.4,286047004.9,N
1511317455.3,286047008.5,N
1511317475.1,286047006.3,N
1511317476.0,286047006.3,N
1511317495.8,286047007.1,N
1511317515.7,286047011.8,N
1511317535.5,286047010.8,N
1511317555.3,286047009.9,N
1511317575.2,286047014.9,Y
1511317595.9,286047009.2,P
1511317615.7,286047007.6,P
1511317635.6,286047005.3,N
1511317655.4,286047005.6,Y
1511317675.2,286046993.3,P
1511317695.1,286046989.8,N
1511317696.0,286046989.8,N
1511317715.8,286046992.1,N
1511317735.6,286046990.1,N
1511317755.4,286046987.2,N
1511317775.3,286046986.5,N
1511317795.1,286046989.9,N
1511317815.8,286046987.4,N
1511317835.7,286046986.9,N
1511317855.5,286046989.6,N
1511317875.3,286046987.2,N
1511317895.2,286046990.0,N
1511317915.9,286046988.1,N
1511317935.7,286046988.1,N
1511317955.6,286046990.3,N
1511317975.4,286046989.5,N
1511317995.2,286046987.7,N
1511318015.0,286046990.8,N
1511318016.0,286046990.8,N
1511318035.8,286046993.4,N
1511318055.6,286046995.6,N
1511318075.4,286046993.1,N
1511318095.3,286046989.4,N
1511318115.1,286046986.2,Y
1511318135.8,286046997.3,P
1511318155.7,286046996.7,N
1511318175.5,286046994.5,N
1511318195.3,286046996.5,N
1511318215.2,286046999.0,N
1511318235.9,286047002.0,N
1511318255.7,286047002.3,N
1511318275.6,286046999.2,N
1511318295.4,286046997.8,N
1511318315.2,286046995.2,N
1511318335.1,286046992.0,N
1511318336.0,286046992.0,N
1511318355.8,286046997.4,N
1511318375.6,286046997.9,N
1511318395.4,286046996.4,N
1511318415.3,286046994.1,N
1511318435.1,286046992.8,N
1511318455.8,286046991.4,N
1511318475.7,286046991.4,N
1511318495.5,286046987.7,Y
1511318515.3,286046994.0,P
1511318535.2,286046995.5,P
1511318555.0,286047001.1,N
1511318555.9,286047001.1,N
1511318575.7,286046999.0,N
1511318595.6,286046992.1,N
1511318615.4,286046992.0,N
1511318635.2,286046994.2,N
1511318655.1,286046994.4,N
1511318656.0,286046994.4,N
1511318675.8,286046990.7,Y
1511318695.6,286046998.2,P
1511318715.5,286047002.7,N
1511318735.3,286047000.5,N
1511318755.1,286047000.3,N
1511318775.9,286047000.4,N
1511318795.7,286046993.3,Y
1511318815.5,286046991.8,P
1511318835.4,286046991.9,N
1511318855.2,286046997.9,N
1511318875.0,286046997.1,N
1511318875.9,286046997.1,N
1511318895.8,286046997.6,N
1511318915.6,286046991.7,N
1511318935.4,286046988.6,Y
1511318955.3,286046995.7,P
1511318975.1,286046997.5,P
1511318976.0,286046997.5,N
1511318995.8,286046997.4,N
1511319015.7,286046999.8,N
1511319035.5,286046998.9,N
1511319055.3,286046998.1,N
1511319075.1,286047001.9,N
1511319095.9,286046999.8,N
1511319115.7,286047002.6,N
1511319135.5,286047006.7,Y
1511319155.4,286047011.1,P
1511319175.2,286047018.6,N
1511319195.0,286047022.7,N
1511319195.9,286047022.7,N
1511319215.8,286047028.3,Y
1511319235.6,286047016.2,P
1511319255.4,286047018.0,P
1511319275.3,286047013.9,P
1511319295.1,286047009.1,Y
1511319315.8,286046992.6,P
1511319335.7,286047005.8,N
1511319355.5,286047016.6,N
1511319375.3,286047012.5,N
1511319395.2,286047012.8,N
1511319415.9,286047013.4,N
1511319435.7,286047012.8,N
1511319455.6,286047013.8,N
1511319475.4,286047023.2,Y
1511319495.2,286047001.8,P
1511319515.1,286047001.2,N
1511319516.0,286047001.2,N
1511319535.8,286047003.0,N
1511319555.6,286047001.0,N
1511319575.5,286046993.6,N
1511319595.3,286046993.5,N
